EW6607 Motilla Del Palancar current weather conditions

sailwx.info

Wind from 150 at 1 knots gusting 5

Air temperature 15.6° C
Dewpoint 15.1° C

Last reported at 2018-May-26 00:00 UTC.
Time now 2018-May-26 00:41 UTC

Location: N 39°34' W 001°55'.
View on Google Maps.

See reports from other nearby stations

  
Tides and Currents Weather Stations Pressure Air Temp Water Temp Dewpoint Dewpoint Depression Visibility Wind Speed Wind Dir Waves Ship Positions
date/time (UTC)wind fromknots sea level pressurealtimeterstation pressurevisibilityair tempwater tempwave heightnotes
2018-May-26 00:00 150 1 gusting 5 15.6
2018-May-25 23:50 127 0 gusting 4 15.6
2018-May-25 23:40 090 0 gusting 2 15.0
2018-May-25 23:30 125 15.0
2018-May-25 23:20 230 15.0
2018-May-25 23:10 254 1 gusting 3 15.6
2018-May-25 23:00 136 0 gusting 5 15.6
2018-May-25 22:50 122 2 gusting 9 15.6
2018-May-25 22:40 127 5 gusting 13 15.6
2018-May-25 22:30 128 7 gusting 13 15.6
2018-May-25 22:20 132 6 gusting 12 15.6
2018-May-25 22:10 115 3 gusting 9 15.6
2018-May-25 22:00 116 6 gusting 10 16.1
2018-May-25 21:50 125 5 gusting 10 16.1
2018-May-25 21:40 138 6 gusting 11 16.1
2018-May-25 21:30 125 5 gusting 13 16.1
2018-May-25 21:20 122 2 gusting 9 16.7
2018-May-25 21:10 141 2 gusting 6 16.7
2018-May-25 21:00 145 3 gusting 6 17.2
2018-May-25 20:50 153 4 gusting 5 17.2
2018-May-25 20:40 175 0 gusting 3 17.2
2018-May-25 20:30 134 1 gusting 6 17.2
2018-May-25 20:20 124 4 gusting 9 17.2
2018-May-25 20:10 136 3 gusting 7 17.8
2018-May-25 20:00 170 6 gusting 7 18.3
2018-May-25 19:50 181 18.3
2018-May-25 19:40 181 18.3
2018-May-25 19:30 181 18.3
2018-May-25 19:20 181 18.3
2018-May-25 19:10 267 18.3
2018-May-25 19:00 270 18.3
2018-May-25 18:50 353 18.3
2018-May-25 18:40 016 18.9
2018-May-25 18:30 009 18.9
2018-May-25 18:20 138 18.3
2018-May-25 18:10 150 0 gusting 5 18.3
2018-May-25 18:00 199 1 gusting 4 18.3
2018-May-25 17:50 056 1 gusting 4 18.3
2018-May-25 17:40 126 18.3
2018-May-25 17:30 138 3 gusting 9 18.3
2018-May-25 17:20 181 1 gusting 6 20.6
2018-May-25 17:10 248 1 gusting 3 21.1
2018-May-25 17:00 230 21.1
2018-May-25 16:50 168 21.7
2018-May-25 16:40 138 3 gusting 6 21.7
2018-May-25 16:30 135 3 gusting 5 21.1
2018-May-25 16:20 135 0 gusting 3 21.1
2018-May-25 16:10 227 0 gusting 3 21.1
2018-May-25 16:00 176 21.1
2018-May-25 15:50 206 1 gusting 5 21.1
2018-May-25 15:40 173 3 gusting 6 21.1
2018-May-25 15:30 167 3 gusting 7 20.6
2018-May-25 15:20 221 1 gusting 8 20.6
2018-May-25 15:10 213 1 gusting 6 21.7
2018-May-25 15:00 166 20.6
2018-May-25 14:50 126 3 gusting 8 20.0
2018-May-25 14:40 090 4 gusting 6 20.6
2018-May-25 14:30 090 0 gusting 11 19.4
2018-May-25 14:20 090 8 gusting 11 19.4
2018-May-25 14:10 090 3 gusting 10 20.6
2018-May-25 14:00 114 4 gusting 7 20.0
2018-May-25 13:50 090 2 gusting 8 19.4
2018-May-25 13:40 090 3 gusting 9 19.4
2018-May-25 13:30 090 7 gusting 11 19.4
2018-May-25 13:20 090 3 gusting 10 19.4
2018-May-25 13:10 094 3 gusting 11 19.4
2018-May-25 13:00 090 7 gusting 12 19.4
2018-May-25 12:50 112 5 gusting 13 19.4
2018-May-25 12:40 126 5 gusting 11 18.9
2018-May-25 12:30 105 6 gusting 13 18.3
2018-May-25 12:20 090 6 gusting 10 18.3
2018-May-25 12:10 097 6 gusting 11 18.3
2018-May-25 12:00 090 6 gusting 9 17.8
2018-May-25 11:50 116 4 gusting 10 17.8
2018-May-25 11:40 111 6 gusting 12 17.8
2018-May-25 11:30 153 6 gusting 12 17.8
2018-May-25 11:20 133 4 gusting 12 17.2
2018-May-25 11:10 090 6 gusting 10 17.2
2018-May-25 11:00 068 6 gusting 11 17.2
2018-May-25 10:50 043 4 gusting 7 17.2
2018-May-25 10:40 046 6 gusting 13 16.7
2018-May-25 10:30 091 6 gusting 10 16.7
2018-May-25 10:20 117 6 gusting 10 16.7
2018-May-25 10:10 064 1 gusting 12 16.7
2018-May-25 10:00 044 6 gusting 13 16.7
2018-May-25 09:50 063 9 gusting 13 17.2
2018-May-25 09:40 046 8 gusting 14 17.2
2018-May-25 09:30 057 1 gusting 14 16.7
2018-May-25 09:20 043 8 gusting 14 16.7
2018-May-25 09:10 035 6 gusting 17 16.7
2018-May-25 09:00 107 8 gusting 14 16.7
2018-May-25 08:50 090 2 gusting 18 16.7
2018-May-25 08:40 066 10 gusting 16 16.1
2018-May-25 08:30 095 8 gusting 13 16.1
2018-May-25 08:20 111 6 gusting 17 15.6
2018-May-25 08:10 048 6 gusting 12 15.6
2018-May-25 08:00 094 4 gusting 14 15.0
2018-May-25 07:50 292 5 gusting 10 15.0
2018-May-25 07:40 312 3 gusting 6 14.4
2018-May-25 07:30 314 3 gusting 5 13.3
2018-May-25 07:20 314 2 gusting 6 12.8
2018-May-25 07:10 311 1 gusting 3 12.8
2018-May-25 07:00 314 12.2
2018-May-25 06:50 314 0 gusting 3 11.7
2018-May-25 06:40 314 0 gusting 2 11.7
2018-May-25 06:30 314 1 gusting 3 11.1
2018-May-25 06:20 313 10.6
2018-May-25 06:10 313 2 gusting 4 11.1
2018-May-25 06:00 314 0 gusting 2 11.1
2018-May-25 05:50 314 10.6
2018-May-25 05:40 314 10.6
2018-May-25 05:30 314 10.6
2018-May-25 05:20 314 10.6
2018-May-25 05:10 11.1
2018-May-25 05:00 314 11.1
2018-May-25 04:50 314 10.6
2018-May-25 04:40 314 10.6
2018-May-25 04:30 314 10.6
2018-May-25 04:20 314 0 gusting 3 10.6
2018-May-25 04:10 314 1 gusting 3 10.6
2018-May-25 04:00 312 1 gusting 2 10.6
2018-May-25 03:50 314 11.1
2018-May-25 03:40 314 11.1
2018-May-25 03:30 314 11.1
2018-May-25 03:20 280 1 gusting 3 11.1
2018-May-25 03:10 334 1 gusting 6 10.6
2018-May-25 03:00 061 0 gusting 6 11.1
2018-May-25 02:50 036 4 gusting 6 11.1
2018-May-25 02:40 034 3 gusting 6 11.1
2018-May-25 02:30 018 5 gusting 6 10.6
2018-May-25 02:20 323 1 gusting 4 10.6
2018-May-25 02:10 034 11.1
2018-May-25 02:00 042 2 gusting 3 11.1
2018-May-25 01:50 042 0 gusting 3 11.7
2018-May-25 01:40 014 12.2
2018-May-25 01:30 029 1 gusting 3 12.2
2018-May-25 01:20 035 1 gusting 3 12.2
2018-May-25 01:10 001 12.2
2018-May-25 01:00 054 12.8
2018-May-25 00:50 023 12.8
2018-May-25 00:40 046 0 gusting 1 12.2
2018-May-25 00:30 272 12.8
2018-May-25 00:20 293 1 gusting 3 12.8
2018-May-25 00:10 355 2 gusting 6 12.8
2018-May-25 00:00 059 3 gusting 6 13.3
2018-May-24 23:50 078 2 gusting 4 13.3
2018-May-24 23:40 040 3 gusting 6 13.3
2018-May-24 23:30 046 2 gusting 6 13.9
2018-May-24 23:20 045 4 gusting 6 14.4
2018-May-24 23:10 044 2 gusting 6 15.0
2018-May-24 23:00 046 2 gusting 6 15.0
2018-May-24 22:50 041 3 gusting 9 15.6
2018-May-24 22:40 076 4 gusting 9 15.6
2018-May-24 22:30 044 3 gusting 6 15.6
2018-May-24 22:20 030 2 gusting 10 16.1
2018-May-24 22:10 070 1 gusting 9 16.1
2018-May-24 22:00 057 3 gusting 9 15.6
2018-May-24 21:50 024 2 gusting 6 15.6
2018-May-24 21:40 359 6 gusting 9 15.6
2018-May-24 21:30 001 5 gusting 8 16.1
2018-May-24 21:20 082 1 gusting 6 16.1
2018-May-24 21:10 046 3 gusting 9 16.1
2018-May-24 21:00 046 1 gusting 6 16.1
2018-May-24 20:50 046 3 gusting 7 16.7
2018-May-24 20:40 046 1 gusting 6 16.7
2018-May-24 20:30 046 2 gusting 8 16.7
2018-May-24 20:20 046 2 gusting 6 17.2
2018-May-24 20:10 046 1 gusting 7 17.2
2018-May-24 20:00 045 3 gusting 9 17.8
2018-May-24 19:50 046 3 gusting 7 17.8
2018-May-24 19:40 045 3 gusting 6 18.3
2018-May-24 19:30 040 3 gusting 9 18.3
2018-May-24 19:20 003 3 gusting 13 18.9
2018-May-24 19:10 001 1 gusting 7 18.9
2018-May-24 19:00 001 5 gusting 13 19.4
2018-May-24 18:50 001 4 gusting 12 19.4
2018-May-24 18:40 358 3 gusting 13 20.0
2018-May-24 18:30 009 6 gusting 14 20.0
2018-May-24 18:20 043 5 gusting 18 20.6
2018-May-24 18:10 075 6 gusting 17 21.1
2018-May-24 18:00 092 8 gusting 14 21.7
2018-May-24 17:50 058 9 gusting 14 21.7
2018-May-24 17:40 353 6 gusting 17 21.7
2018-May-24 17:30 084 4 gusting 15 21.7
2018-May-24 17:20 100 11 gusting 14 21.7
2018-May-24 17:10 101 6 gusting 18 21.7
2018-May-24 17:00 092 6 gusting 14 22.2
2018-May-24 16:50 087 8 gusting 17 22.2
2018-May-24 16:40 154 13 gusting 22 22.2
2018-May-24 16:30 074 10 gusting 19 22.2
2018-May-24 16:20 061 8 gusting 18 22.2
2018-May-24 16:10 112 9 gusting 16 22.2
2018-May-24 16:00 007 9 gusting 17 22.2
2018-May-24 15:50 156 6 gusting 19 22.2
2018-May-24 15:40 098 12 gusting 21 22.2
2018-May-24 15:30 069 14 gusting 19 22.8
2018-May-24 15:20 027 13 gusting 19 22.2
2018-May-24 15:10 098 9 gusting 20 22.8
2018-May-24 15:00 105 15 gusting 20 23.3
2018-May-24 14:50 138 6 gusting 14 23.3
2018-May-24 14:40 024 9 gusting 18 23.3
2018-May-24 14:30 052 4 gusting 16 23.3
2018-May-24 14:20 051 4 gusting 17 22.8
2018-May-24 14:10 042 11 gusting 17 22.8
2018-May-24 14:00 094 3 gusting 16 22.8
2018-May-24 13:50 124 11 gusting 17 22.2
2018-May-24 13:40 138 7 gusting 19 21.7
2018-May-24 13:30 025 8 gusting 19 22.2
2018-May-24 13:20 124 6 gusting 13 22.2
2018-May-24 13:10 147 4 gusting 14 21.7
2018-May-24 13:00 045 6 gusting 14 22.2
2018-May-24 12:50 080 9 gusting 16 22.2
2018-May-24 12:40 088 7 gusting 15 22.2
2018-May-24 12:30 130 11 gusting 16 21.7
2018-May-24 12:20 131 3 gusting 14 21.7
2018-May-24 12:10 034 2 gusting 13 21.7
2018-May-24 12:00 044 9 gusting 13 20.6
2018-May-24 11:50 017 5 gusting 14 20.6
2018-May-24 11:40 045 6 gusting 13 21.1
2018-May-24 11:30 082 4 gusting 16 20.6
2018-May-24 11:20 038 3 gusting 12 20.6
2018-May-24 11:10 052 9 gusting 13 20.0
2018-May-24 11:00 073 6 gusting 16 19.4
2018-May-24 10:50 073 4 gusting 14 18.9
2018-May-24 10:40 349 10 gusting 13 18.3
2018-May-24 10:30 023 7 gusting 18 18.9
2018-May-24 10:20 013 6 gusting 18 18.9
2018-May-24 10:10 050 9 gusting 14 18.9
2018-May-24 10:00 050 6 gusting 14 17.8
2018-May-24 09:50 045 6 gusting 11 17.8
2018-May-24 09:40 064 6 gusting 13 17.8
2018-May-24 09:30 056 2 gusting 10 17.8
2018-May-24 09:20 085 9 gusting 14 17.8
2018-May-24 09:10 100 6 gusting 15 17.8
2018-May-24 09:00 105 3 gusting 16 17.8
2018-May-24 08:50 096 9 gusting 17 18.3
2018-May-24 08:40 141 4 gusting 13 18.3
2018-May-24 08:30 099 6 gusting 13 18.3
2018-May-24 08:20 041 6 gusting 14 18.3
2018-May-24 08:10 089 8 gusting 17 17.8
2018-May-24 08:00 098 7 gusting 16 18.3
2018-May-24 07:50 134 5 gusting 14 18.3
2018-May-24 07:40 200 10 gusting 15 18.3
2018-May-24 07:30 100 6 gusting 13 18.3
2018-May-24 07:20 349 5 gusting 13 17.8
2018-May-24 07:10 322 6 gusting 10 16.7
2018-May-24 07:00 047 3 gusting 13 16.1
2018-May-24 06:50 071 5 gusting 8 16.1
2018-May-24 06:40 135 1 gusting 9 15.6
2018-May-24 06:30 135 5 gusting 9 15.6
2018-May-24 06:20 100 3 gusting 8 15.6
2018-May-24 06:10 010 5 gusting 7 15.0
2018-May-24 06:00 001 1 gusting 5 13.9
2018-May-24 05:50 001 2 gusting 5 13.9
2018-May-24 05:40 027 3 gusting 6 13.3
2018-May-24 05:30 027 3 gusting 5 12.8
2018-May-24 05:20 345 2 gusting 6 12.8
2018-May-24 05:10 017 1 gusting 6 12.2
2018-May-24 05:00 051 3 gusting 6 12.2
2018-May-24 04:50 060 6 gusting 6 12.2
2018-May-24 04:40 089 4 gusting 6 12.2
2018-May-24 04:30 102 3 gusting 8 12.2
2018-May-24 04:20 041 3 gusting 9 12.8
2018-May-24 04:10 044 6 gusting 11 13.3
2018-May-24 04:00 052 2 gusting 6 12.8
2018-May-24 03:50 033 3 gusting 6 12.8
2018-May-24 03:40 012 2 gusting 7 12.8
2018-May-24 03:30 023 3 gusting 6 12.8
2018-May-24 03:20 035 2 gusting 6 13.3
2018-May-24 03:10 020 3 gusting 5 13.9
2018-May-24 03:00 329 3 gusting 5 13.9
2018-May-24 02:50 003 1 gusting 5 14.4
2018-May-24 02:40 335 3 gusting 6 14.4
2018-May-24 02:30 010 2 gusting 7 14.4
2018-May-24 02:20 304 3 gusting 6 15.0
2018-May-24 02:10 016 1 gusting 6 15.0
2018-May-24 02:00 001 3 gusting 4 15.0
2018-May-24 01:50 330 1 gusting 4 15.6
2018-May-24 01:40 314 2 gusting 5 15.6
2018-May-24 01:30 341 15.6
2018-May-24 01:20 050 1 gusting 5 15.6
2018-May-24 01:10 075 3 gusting 6 15.6
2018-May-24 01:00 137 1 gusting 5 15.6
2018-May-24 00:50 091 15.6
2018-May-24 00:40 148 3 gusting 6 15.6
2018-May-24 00:30 130 1 gusting 9 16.1
2018-May-24 00:20 158 1 gusting 6 16.1
2018-May-24 00:10 141 3 gusting 6 16.1
2018-May-24 00:00 110 4 gusting 7 16.7